{"data":{"norad_id":68909,"intl_designator":"2026-097Q","name":"STARLINK-37544","alt_names":[],"object_type":"PAYLOAD","status":"ACTIVE","operator":null,"country":"US","launch_date":"2026-04-30","launch_site_code":"AFWTR","launch_vehicle":null,"mission":null,"orbit_class":"UNKNOWN","rcs_meters":null,"size_class":null,"mass_kg":null,"dimensions":null,"purposes":["comms"],"wikipedia_slug":null,"has_3d_model":false,"image_url":null,"decayed_at":null,"tle_current":{"epoch":"2026-05-25T02:58:10.232256Z","epoch_age_seconds":60311,"freshness":"FRESH","line1":"1 68909U 26097Q   26145.12372954  .00050586  00000+0  92547-3 0  9990","line2":"2 68909  97.2849 340.8470 0001460  89.6012 270.5406 15.49199415  3944","mean_motion":15.49199415,"eccentricity":0.000146,"inclination_deg":97.2849,"raan_deg":340.847,"arg_perigee_deg":89.6012,"mean_anomaly_deg":270.5406,"bstar":0.00092547,"rev_number":394,"period_min":92.951235719386,"perigee_km":418.07441206969,"apogee_km":420.05919558041,"semimajor_km":6797.203803825,"source":"CELESTRAK","updated_at":"2026-05-25T13:38:22.069264Z"}}}